Regional Weather Roundup
Issued by NWS

Home | Current Version | Previous Version | Text Only | Print | Product List | Glossary Off
Versions: 1 2 3 4 5 6 7 8 9 10 11 12 13 14 15 16 17 18 19 20 21 22 23 24 25 26 27 28 29 30 31 32 33 34 35 36 37 38 39 40 41 42 43 44 45 46 47 48 49 50

303
ASUS44 KLIX 281901
RWRLA
LOUISIANA WEATHER ROUNDUP
NATIONAL WEATHER SERVICE NEW ORLEANS LA
200 PM CDT MON JUL 28 2014

NOTE: "FAIR" INDICATES FEW OR NO CLOUDS BELOW 12,000 FEET WITH NO
      SIGNIFICANT WEATHER AND/OR OBSTRUCTIONS TO VISIBILITY.
      SKY/WX - SKY CONDITION AND SIGNIFICANT WEATHER.
      TMP - AIR TEMPERATURE.    DP   - DEWPOINT TEMPERATURE.
      RH  - RELATIVE HUMIDITY.  PRES - PRESSURE.
      HX  - HEAT INDEX.         WCI  - WIND CHILL INDEX.

*  THESE STATIONS ARE NOT NWS OR FAA STATIONS AND ARE NOT UNDER
   NWS QUALITY CONTROL.

LAZ040-048-061>063-065-066-069-282000-
SOUTHEAST LOUISIANA

CITY           SKY/WX    TMP DP  RH WIND       PRES   REMARKS
N.O. AUDUBON     N/A     96  75  50 MISG        N/A  HX 108
N.O. INTL ARPT PTSUNNY   93  75  55 W14       30.04F HX 104
N.O. LAKEFRONT MOSUNNY   90  77  65 W9        30.05F HX 103
N.O. DOWNTOWN* CLOUDY    93  72  49 W8        30.05F HX 100
SLIDELL        PTSUNNY   91  77  63 SW9       30.02F HX 104
BATON ROUGE    PTSUNNY   89  76  65 NW8G18    30.06F HX 100
BOOTHVILLE     SUNNY     89  76  65 W15       30.07F HX 100
BELLE CHASSE   PTSUNNY   92  72  51 W9        30.04F HX  99
BOGALUSA*      FAIR      91  73  54 W10       30.05S HX  99
GALLIANO*      NOT AVBL
NEW ROADS*     FAIR      90  77  65 NW8       30.06F HX 102
GONZALES*      MOCLDY    91  78  65 W7        30.05F HX 104
HAMMOND*       PTSUNNY   93  73  52 NW13      30.06F HX 102
HOUMA*         MOSUNNY   93  72  49 W6        30.07S HX 100
PORT FOURCHON* NOT AVBL

$$

LAZ041-044-053-054-282000-
SOUTHWEST LOUISIANA

CITY           SKY/WX    TMP DP  RH WIND       PRES   REMARKS
LAKE CHARLES   MOSUNNY   93  73  52 W7        30.07F HX 102
LAFAYETTE      NOT AVBL
PATTERSON      PTSUNNY   91  75  59 W10       30.11F HX 102
SALT POINT       N/A     92  77  61 W7        30.07F HX 105
NEW IBERIA     PTSUNNY   90  75  61 W10       30.07F HX 100
CHENAULT AIRPK MOSUNNY   93  72  49 NW8       30.08F HX 100

$$

LAZ027-028-282000-
CENTRAL LOUISIANA

CITY           SKY/WX    TMP DP  RH WIND       PRES   REMARKS
FORT POLK      MOSUNNY   91  71  51 W9        30.08F HX  97
ALEXANDRIA INT PTSUNNY   93  70  46 W10       30.04F HX  99
ALEXANDRIA     PTSUNNY   94  76  55 W12       30.05F HX 106

$$

LAZ001-002-282000-
NORTHWEST LOUISIANA

CITY           SKY/WX    TMP DP  RH WIND       PRES   REMARKS
SHREVEPORT     PTSUNNY   91  73  55 NW7       30.06F HX  99
BARKSDALE AFB  MOSUNNY   91  73  55 VRB2      30.07F HX  99
DTN SHREVEPORT MOSUNNY   90  70  51 N5        30.07F HX  95

$$

LAZ014-016-282000-
NORTHEAST LOUISIANA

CITY           SKY/WX    TMP DP  RH WIND       PRES   REMARKS
MONROE         PTSUNNY   90  72  55 VRB6      30.06F HX  97
TALLULAH       SUNNY     92  68  45 N6        30.04F HX  96

$$




USA.gov is the U.S. government's official web portal to all federal, state and local government web resources and services.